GW4240 Weather Reports


time (UTC)temp
C
wind
direction
speed
KPH
gust
KPH
rain 1hr
cm
rain 24hr
cm
rain mn
cm
humidity
%
barometer
mb
20260504190041 21 307 4.8 11.3 0.00 0.00 0.00 52 1010.3
20260504185520 20 303 6.4 14.5 0.00 0.00 0.00 53 1010.4
20260504185021 20 262 8.0 14.5 0.00 0.00 0.00 54 1010.4
20260504184541 20 249 6.4 14.5 0.00 0.00 0.00 54 1010.4
20260504184022 20 270 4.8 14.5 0.00 0.00 0.00 55 1010.4
20260504183522 20 246 6.4 14.5 0.00 0.00 0.00 53 1010.5
20260504183041 20 266 6.4 12.9 0.00 0.00 0.00 54 1010.6
20260504182521 20 229 6.4 14.5 0.00 0.00 0.00 54 1010.4
20260504182023 20 273 6.4 14.5 0.00 0.00 0.00 55 1010.4
20260504181538 20 212 8.0 12.9 0.00 0.00 0.00 54 1010.4
20260504181021 20 262 6.4 16.1 0.00 0.00 0.00 55 1010.4
20260504180523 20 232 6.4 16.1 0.00 0.00 0.00 55 1010.5
20260504180037 20 234 6.4 12.9 0.00 0.00 0.00 54 1010.4
20260504175521 20 277 4.8 12.9 0.00 0.00 0.00 56 1010.4
20260504175022 20 264 4.8 12.9 0.00 0.00 0.00 56 1010.4
20260504174541 20 243 4.8 11.3 0.00 0.00 0.00 55 1010.4
20260504174022 20 236 6.4 11.3 0.00 0.00 0.00 59 1010.4
20260504173520 20 288 4.8 12.9 0.00 0.00 0.00 60 1010.4
20260504173040 19 276 9.7 12.9 0.00 0.00 0.00 59 1010.4
20260504172520 20 271 8.0 11.3 0.00 0.00 0.00 60 1010.5
20260504172020 20 226 3.2 11.3 0.00 0.00 0.00 62 1010.5
20260504171547 20 238 4.8 11.3 0.00 0.00 0.00 62 1010.5
20260504171022 19 230 4.8 12.9 0.00 0.00 0.00 64 1010.6
20260504170521 19 241 4.8 12.9 0.00 0.00 0.00 65 1010.6
20260504151021 17 122 0.0 3.2 0.00 0.00 0.00 83 1010.7
20260504150522 16 0 1.6 3.2 0.00 0.00 0.00 83 1010.5
20260504141024 13 0 0.0 0.0 0.00 0.00 0.00 86 1010.2
20260504140521 13 0 0.0 0.0 0.00 0.00 0.00 86 1010.1
20260504130521 10 301 1.6 4.8 0.00 0.00 0.00 93 1009.7
20260504110521 10 263 3.2 3.2 0.00 0.00 0.00 90 1009.6
20260504100523 10 286 3.2 3.2 0.00 0.00 0.00 91 1009.4
20260504081551 11 0 0.0 0.0 0.00 0.00 0.00 90 1009.2
20260504081021 11 0 0.0 0.0 0.00 0.00 0.00 89 1009.0
20260504080521 11 0 0.0 0.0 0.00 0.00 0.00 90 1009.1
20260504050524 13 322 0.0 1.6 0.00 0.00 0.00 87 1009.2
20260504045521 13 298 1.6 1.6 0.00 0.00 0.00 87 1009.2
20260504045023 13 298 1.6 1.6 0.00 0.00 0.00 86 1009.3
20260504044536 13 318 1.6 1.6 0.00 0.00 0.00 86 1009.3
20260504044022 13 319 1.6 3.2 0.00 0.00 0.00 87 1009.4
20260504043521 13 319 1.6 3.2 0.00 0.00 0.00 86 1009.2
20260504043046 13 245 1.6 1.6 0.00 0.00 0.00 85 1009.3
20260504042521 13 246 0.0 1.6 0.00 0.00 0.00 84 1009.3
20260504042022 13 246 1.6 3.2 0.00 0.00 0.00 84 1009.3
20260504041538 13 246 1.6 3.2 0.00 0.00 0.00 83 1009.3
20260504041022 14 238 0.0 1.6 0.00 0.00 0.00 83 1009.3
20260504040521 14 0 0.0 0.0 0.00 0.00 0.00 83 1009.2
20260504040045 14 0 0.0 1.6 0.00 0.00 0.00 82 1009.3
20260504035522 15 0 0.0 1.6 0.00 0.00 0.00 81 1009.2
20260504035024 15 238 1.6 1.6 0.00 0.00 0.00 80 1009.2
20260504034540 15 238 1.6 1.6 0.00 0.00 0.00 79 1009.2
20260504034023 15 237 0.0 1.6 0.00 0.00 0.00 78 1009.2
20260504033520 15 0 0.0 0.0 0.00 0.00 0.00 77 1009.2
20260504033041 16 0 0.0 1.6 0.00 0.00 0.00 76 1009.3
20260504032521 16 0 0.0 3.2 0.00 0.00 0.00 75 1009.3
20260504032022 16 0 0.0 3.2 0.00 0.00 0.00 74 1009.3
20260504031540 17 238 0.0 3.2 0.00 0.00 0.00 73 1009.4
20260504031021 17 176 0.0 3.2 0.00 0.00 0.00 72 1009.4
20260504030521 18 207 0.0 3.2 0.00 0.00 0.00 71 1009.3
20260504030044 18 236 0.0 3.2 0.00 0.00 0.00 70 1009.2
20260504025525 18 153 0.0 3.2 0.00 0.00 0.00 70 1009.4
20260504025020 18 210 0.0 3.2 0.00 0.00 0.00 70 1009.4
20260504024544 18 158 1.6 3.2 0.00 0.00 0.00 69 1009.3
20260504024021 18 162 1.6 4.8 0.00 0.00 0.00 69 1009.4
20260504023524 18 143 1.6 6.4 0.00 0.00 0.00 70 1009.3
20260504023041 18 156 1.6 8.0 0.00 0.00 0.00 69 1009.4
20260504022521 18 224 3.2 8.0 0.00 0.00 0.00 69 1009.4
20260504022020 18 174 3.2 6.4 0.00 0.00 0.00 68 1009.4
20260504021539 19 165 3.2 6.4 0.00 0.00 0.00 68 1009.5
20260504021023 20 158 3.2 6.4 0.00 0.00 0.00 67 1009.4
20260504020520 20 165 1.6 6.4 0.00 0.00 0.00 67 1009.5
20260504020037 20 171 0.0 4.8 0.00 0.00 0.00 66 1009.5
20260504015523 20 223 1.6 4.8 0.00 0.00 0.00 66 1009.6
20260504015024 20 211 1.6 4.8 0.00 0.00 0.00 66 1009.7
20260504014540 20 176 1.6 4.8 0.00 0.00 0.00 66 1009.7
20260504014020 20 171 1.6 4.8 0.00 0.00 0.00 67 1009.8
20260504013523 20 235 1.6 4.8 0.00 0.00 0.00 70 1009.7
20260504013052 19 155 3.2 6.4 0.00 0.00 0.00 70 1009.7
20260504012524 20 142 1.6 6.4 0.00 0.00 0.00 70 1009.9
20260504012023 20 164 3.2 6.4 0.00 0.00 0.00 69 1009.8
20260504011540 20 185 1.6 6.4 0.00 0.00 0.00 70 1009.9
20260504011019 20 163 3.2 6.4 0.00 0.00 0.00 69 1010.1
20260504010523 20 195 3.2 6.4 0.00 0.00 0.00 66 1010.1
20260504010046 21 153 3.2 6.4 0.00 0.00 0.00 65 1010.1
20260504005521 21 147 3.2 6.4 0.00 0.00 0.00 64 1010.2
20260504005023 21 143 3.2 8.0 0.00 0.00 0.00 65 1010.2
20260504004541 21 168 4.8 8.0 0.00 0.00 0.00 63 1010.4
20260504004024 21 165 4.8 9.7 0.00 0.00 0.00 64 1010.4
20260504003523 21 146 3.2 9.7 0.00 0.00 0.00 64 1010.4
20260504003038 21 150 4.8 9.7 0.00 0.00 0.00 62 1010.6
20260504002520 21 146 3.2 6.4 0.00 0.00 0.00 62 1010.5
20260504002020 21 206 1.6 6.4 0.00 0.00 0.00 63 1010.6
20260504001540 21 149 3.2 6.4 0.00 0.00 0.00 63 1010.7
20260504001023 22 202 3.2 8.0 0.00 0.00 0.00 62 1010.7
20260504000523 22 181 3.2 8.0 0.00 0.00 0.00 62 1010.7
20260504000046 22 153 1.6 8.0 0.00 0.00 0.00 61 1010.9
20260503235523 22 218 3.2 8.0 0.00 0.00 0.00 61 1010.9
20260503235023 22 242 3.2 8.0 0.00 0.00 0.00 61 1010.9
20260503234543 22 302 1.6 8.0 0.00 0.00 0.00 59 1011.1
20260503234023 22 272 4.8 9.7 0.00 0.00 0.00 58 1011.1
20260503233523 22 240 4.8 9.7 0.00 0.00 0.00 57 1011.1
20260503233045 22 235 3.2 9.7 0.00 0.00 0.00 59 1011.0
20260503232523 22 224 4.8 9.7 0.00 0.00 0.00 58 1011.1
20260503232022 22 203 4.8 9.7 0.00 0.00 0.00 56 1011.1
20260503231541 23 220 3.2 8.0 0.00 0.00 0.00 60 1011.1
20260503231023 23 218 4.8 11.3 0.00 0.00 0.00 53 1011.2
20260503230526 22 278 6.4 11.3 0.00 0.00 0.00 52 1011.2
20260503230038 22 280 3.2 11.3 0.00 0.00 0.00 55 1011.2
20260503225522 22 70 3.2 11.3 0.00 0.00 0.00 61 1011.3
20260503225022 22 146 1.6 11.3 0.00 0.00 0.00 53 1011.2
20260503224537 22 305 4.8 17.7 0.00 0.00 0.00 53 1011.5
20260503224022 22 247 4.8 17.7 0.00 0.00 0.00 53 1011.4
20260503223522 22 303 8.0 14.5 0.00 0.00 0.00 49 1011.5
20260503223044 22 260 8.0 14.5 0.00 0.00 0.00 51 1011.7
20260503222522 22 288 8.0 14.5 0.00 0.00 0.00 52 1011.8
20260503222022 22 302 8.0 16.1 0.00 0.00 0.00 56 1012.0
20260503221543 22 256 8.0 17.7 0.00 0.00 0.00 54 1012.1
20260503221022 22 285 11.3 17.7 0.00 0.00 0.00 53 1012.2
20260503220522 22 304 11.3 17.7 0.00 0.00 0.00 52 1012.2
20260503220041 22 300 11.3 17.7 0.00 0.00 0.00 54 1012.3
20260503215521 22 248 3.2 12.9 0.00 0.00 0.00 59 1012.4
20260503215021 22 298 4.8 12.9 0.00 0.00 0.00 58 1012.4
20260503214541 22 255 4.8 9.7 0.00 0.00 0.00 57 1012.5
20260503214022 22 217 4.8 9.7 0.00 0.00 0.00 58 1012.5
20260503213522 22 295 4.8 9.7 0.00 0.00 0.00 57 1012.4
20260503213040 22 275 3.2 9.7 0.00 0.00 0.00 60 1012.5
20260503212523 21 250 3.2 8.0 0.00 0.00 0.00 62 1012.7
20260503212023 21 303 3.2 16.1 0.00 0.00 0.00 61 1012.8
20260503211538 21 248 4.8 16.1 0.00 0.00 0.00 62 1012.7
20260503211022 21 285 6.4 14.5 0.00 0.00 0.00 60 1012.8
20260503210522 21 287 3.2 14.5 0.00 0.00 0.00 60 1013.0
20260503210043 21 207 1.6 11.3 0.00 0.00 0.00 61 1013.0
20260503205524 21 234 1.6 9.7 0.00 0.00 0.00 63 1013.1
20260503205022 21 113 0.0 12.9 0.00 0.00 0.00 65 1013.1
20260503204543 20 297 6.4 12.9 0.00 0.00 0.00 60 1013.1
20260503204022 20 295 8.0 12.9 0.00 0.00 0.00 59 1013.2
20260503203522 20 257 6.4 12.9 0.00 0.00 0.00 63 1013.3
20260503203049 20 308 4.8 12.9 0.00 0.00 0.00 62 1013.3
20260503202522 20 309 6.4 12.9 0.00 0.00 0.00 65 1013.3
20260503202021 20 292 6.4 11.3 0.00 0.00 0.00 62 1013.4
20260503201545 20 289 6.4 14.5 0.00 0.00 0.00 62 1013.4
20260503201022 20 299 4.8 14.5 0.00 0.00 0.00 61 1013.5
20260503200521 20 304 6.4 12.9 0.00 0.00 0.00 63 1013.6
20260503200038 20 274 4.8 12.9 0.00 0.00 0.00 63 1013.7
20260503195525 20 289 1.6 12.9 0.00 0.00 0.00 64 1013.8
20260503195021 19 279 4.8 17.7 0.00 0.00 0.00 67 1013.8
20260503194541 19 335 8.0 17.7 0.00 0.00 0.00 66 1013.9
20260503194022 18 321 12.9 20.9 0.00 0.00 0.00 64 1014.0
20260503193522 18 310 11.3 20.9 0.00 0.00 0.00 66 1014.0
20260503193046 18 314 14.5 20.9 0.00 0.00 0.00 66 1014.0
20260503192523 18 298 11.3 17.7 0.00 0.00 0.00 66 1014.0
20260503192022 18 313 11.3 17.7 0.00 0.00 0.00 67 1014.0
20260503191542 18 312 9.7 16.1 0.00 0.00 0.00 68 1013.9
20260503191022 18 280 11.3 16.1 0.00 0.00 0.00 68 1014.1
20260503190522 18 288 11.3 16.1 0.00 0.00 0.00 67 1014.2